GFSNW_sfc_30mbdewp_165.txt.gz
Dewpoint
41 42 42 45 44 44 42 35 29 37 40 34 33 30 25 28 24 35 34 32 28 26 27 29 24 19 26 34 31 30 31 33 32 34 30 35 34 37 39 30 31 34 30 31
41 41 41 44 44 43 39 31 34 41 39 28 28 25 24 24 24 24 33 32 30 29 26 25 25 23 36 35 34 34 36 28 22 19 21 29 31 31 35 35 32 30 30 32
40 41 40 41 43 43 39 33 28 34 37 30 24 22 22 22 28 26 30 32 29 30 28 29 30 23 31 34 33 36 34 29 24 20 17 30 34 35 37 35 30 32 31 31
40 40 40 40 42 42 39 33 28 27 26 26 28 24 25 19 16 20 26 26 27 29 26 29 25 29 28 29 30 32 31 28 29 28 29 28 32 33 32 32 32 28 30 32
40 39 39 40 42 41 36 29 29 27 27 21 22 23 25 17 16 28 27 27 25 28 27 26 25 29 29 24 26 26 34 26 29 25 22 27 26 27 25 24 22 26 30 28
40 40 40 40 42 39 32 36 26 26 19 20 18 18 16 14 16 15 21 21 24 19 29 28 24 20 23 28 24 24 31 27 25 19 18 27 25 26 20 20 23 21 21 23
41 40 40 40 41 39 35 33 27 28 22 19 18 17 19 17 14 15 16 24 26 21 22 17 17 18 22 24 25 24 25 28 27 20 19 15 20 26 24 25 23 23 23 23
41 41 40 40 41 41 37 33 30 30 23 21 18 16 16 14 13 13 13 13 15 15 13 17 18 15 21 21 22 23 23 24 23 20 18 17 15 15 17 26 26 24 21 22
41 40 41 40 40 42 40 35 31 29 24 18 18 16 15 14 12 11 12 14 16 22 19 10 16 10 17 16 18 20 21 25 25 22 19 15 12 16 23 22 20 21 21 20
41 41 40 40 40 42 40 36 36 31 25 20 16 14 13 12 12 13 11 17 19 22 18 14 16 14 9 10 15 19 23 23 24 22 18 16 14 13 14 15 16 19 20 23
42 40 40 40 40 41 40 35 36 32 27 21 18 19 18 15 14 13 22 18 18 18 17 13 11 15 14 13 13 14 15 26 22 22 20 18 16 15 11 15 18 20 21 24
42 41 40 40 40 39 40 32 35 33 29 24 27 24 22 20 18 21 22 20 18 17 19 20 22 18 20 18 16 17 17 29 22 21 19 19 24 22 26 30 26 27 27 27
42 42 40 40 40 39 39 34 34 32 30 28 26 24 27 26 24 24 21 21 20 19 19 21 20 17 16 14 15 20 24 24 27 25 22 22 21 24 25 23 23 24 24 25
42 43 40 40 40 39 39 36 35 32 28 23 21 24 26 27 28 28 26 24 23 22 20 25 20 15 18 18 18 20 22 21 26 29 25 24 25 24 26 30 31 31 29 27
42 42 42 40 40 40 39 39 37 34 27 25 24 25 26 27 27 27 28 26 25 25 22 24 19 16 14 16 19 18 20 23 27 28 24 23 23 30 31 29 29 32 32 30
42 42 43 42 40 41 39 33 36 37 32 31 23 26 25 25 27 27 27 27 26 27 25 21 18 17 21 23 16 16 18 32 31 28 26 27 29 28 27 28 32 34 35 32
42 42 42 42 42 41 34 32 36 39 38 31 26 23 25 23 25 25 25 26 28 27 26 23 19 16 19 20 19 18 23 24 24 28 25 23 27 27 28 28 30 34 38 35
42 42 42 43 42 39 35 38 38 40 34 32 25 23 24 26 22 22 26 28 30 29 25 22 19 18 23 22 21 21 21 22 23 24 23 23 27 28 27 28 29 32 33 33
42 40 38 37 33 31 34 39 38 38 33 27 26 20 20 28 26 27 30 33 27 26 24 21 23 24 24 22 20 21 24 26 26 21 17 20 20 18 19 25 26 25 27 33
38 37 34 29 34 39 38 33 31 32 33 28 23 18 17 25 25 24 29 30 24 21 19 22 24 22 22 21 27 29 23 22 20 22 25 26 26 25 25 20 19 20 20 22
32 31 30 35 38 36 31 26 22 23 21 19 20 19 19 26 22 23 26 27 24 21 26 25 23 19 21 26 29 31 32 32 31 31 31 31 31 31 31 26 24 27 30 30
31 34 37 36 32 27 22 18 17 17 10 15 18 21 22 24 26 25 28 27 25 22 25 22 21 27 29 30 31 32 32 31 32 31 31 32 32 34 33 31 34 36 35 35
30 26 26 25 23 19 16 13 13 12 16 21 23 26 27 31 28 29 30 24 23 25 23 17 19 26 29 31 31 31 31 31 31 31 32 32 32 31 33 33 31 33 32 33
28 23 21 20 19 17 12 9 10 19 25 26 27 30 29 32 28 26 22 22 22 19 17 13 24 29 31 31 32 31 31 30 31 30 30 29 29 30 30 29 30 31 30 31
29 26 21 22 23 26 28 28 28 29 29 28 30 30 31 25 25 24 21 20 18 15 12 26 32 32 31 31 31 31 29 29 29 30 30 30 30 30 28 29 29 30 29 29
30 26 25 27 27 28 29 29 28 30 29 29 33 25 23 22 21 19 19 12 7 17 29 33 33 32 31 31 31 30 30 30 30 30 30 30 29 29 28 29 28 29 29 29
25 27 29 29 28 29 29 30 29 31 31 26 23 20 15 21 16 13 15 17 26 33 32 33 32 32 32 31 31 30 31 30 30 29 29 29 29 30 29 27 27 26 27 27

GFSNW_sfc_30mbdewp_171.txt.gz
Dewpoint
44 44 45 45 47 45 42 37 29 37 44 34 33 30 32 29 27 26 31 34 31 29 30 29 26 30 29 37 37 35 36 33 30 32 33 37 38 38 37 31 31 32 32 32
43 44 44 45 45 44 39 34 32 37 40 27 29 33 32 31 27 25 33 32 34 32 29 26 27 31 32 38 37 33 34 31 24 26 30 33 34 34 35 34 32 31 28 30
42 42 42 43 43 44 40 33 28 32 36 35 29 27 29 28 31 27 27 33 33 31 28 27 27 24 24 29 31 38 36 31 28 23 26 30 28 27 28 32 28 29 31 31
41 41 42 41 41 43 38 34 29 31 26 28 30 29 27 27 29 28 33 32 31 25 23 22 21 26 26 26 33 35 34 27 25 25 24 25 25 22 24 24 28 29 25 26
41 41 41 42 41 41 34 30 30 32 30 30 28 28 25 25 29 31 30 28 30 27 25 26 24 26 23 21 27 25 31 26 28 21 23 21 21 21 21 20 22 25 32 32
41 41 41 41 42 39 34 35 36 34 28 26 26 28 28 29 29 31 30 26 24 22 23 28 28 29 27 23 20 20 26 26 25 19 19 19 17 16 18 17 17 25 24 28
41 41 41 41 42 39 37 35 34 31 24 26 25 26 27 27 28 28 23 22 18 26 28 27 26 24 19 17 16 19 21 24 24 20 20 13 11 18 18 19 21 28 27 30
41 41 41 41 41 42 36 35 33 30 27 26 25 25 26 25 25 25 25 23 20 23 22 15 12 11 10 15 16 17 21 21 21 19 16 15 13 14 14 13 13 20 20 25
41 41 40 40 40 42 38 36 36 34 29 27 31 28 28 24 20 20 20 21 23 20 16 13 10 6 6 9 15 17 19 21 22 22 18 10 13 15 26 25 16 29 26 28
41 41 40 40 41 41 39 37 38 34 31 29 26 25 24 24 22 19 17 20 22 22 19 16 14 12 11 9 11 11 17 26 22 22 20 20 22 27 20 15 23 32 31 32
41 41 41 40 41 41 40 36 39 36 32 29 27 26 26 23 23 16 22 20 25 23 19 17 15 13 14 14 15 15 14 16 20 22 20 18 30 31 28 32 34 35 35 35
41 41 41 40 41 41 41 34 38 38 34 31 32 31 30 27 23 22 25 23 27 25 23 25 25 20 21 18 15 18 17 23 24 22 24 28 32 30 31 37 35 37 36 34
41 41 42 41 41 41 40 34 37 35 31 29 28 25 28 27 27 28 22 25 26 27 28 26 23 18 18 14 15 16 20 21 27 27 26 21 26 31 31 35 37 38 36 35
42 41 41 41 41 41 40 34 37 33 31 25 24 28 28 28 28 27 28 26 26 27 27 24 24 21 20 17 18 18 18 18 17 16 19 22 25 31 31 33 37 38 36 36
42 42 41 42 41 41 40 36 37 36 30 27 27 30 29 27 27 27 28 27 27 27 26 24 23 23 21 22 21 19 19 17 15 13 18 25 25 31 30 35 36 36 36 36
42 42 41 42 41 40 37 33 36 38 36 31 23 29 27 28 27 27 27 29 29 29 27 26 27 26 23 23 18 16 18 18 19 18 18 19 22 28 34 36 34 36 35 36
42 41 42 41 41 39 33 30 36 37 38 31 25 25 25 27 28 28 29 29 29 29 31 29 26 24 24 24 20 20 22 21 20 21 22 22 24 29 31 37 34 38 37 37
42 41 42 41 41 38 35 38 39 39 35 33 24 23 26 28 25 24 29 27 28 31 29 29 25 26 26 22 21 20 20 19 20 21 30 33 31 31 31 29 26 33 36 36
42 41 41 35 35 32 36 39 40 39 32 25 26 21 18 30 27 31 32 33 27 30 27 25 26 25 21 21 19 19 19 19 20 30 34 35 34 34 29 26 25 26 33 37
38 36 32 29 32 40 38 35 32 32 32 32 27 25 20 28 28 27 25 28 24 22 25 27 25 22 21 20 20 21 20 24 33 33 32 34 32 33 34 36 37 38 37 36
36 32 30 36 39 35 32 27 27 28 25 28 28 26 24 30 25 25 26 24 25 21 22 24 23 21 25 24 22 21 30 31 36 37 35 34 34 36 36 34 33 33 32 32
35 34 36 35 32 29 24 24 27 23 19 23 23 24 25 28 30 27 26 23 23 19 28 24 21 30 33 27 23 22 26 32 33 33 33 32 31 32 32 30 30 30 31 33
35 32 28 28 28 21 20 17 22 19 18 20 22 22 24 28 28 25 26 24 22 29 25 22 27 32 33 32 33 32 32 32 31 31 31 30 30 30 29 29 30 30 31 33
29 23 19 23 19 20 20 18 18 21 20 20 25 26 26 30 25 25 24 25 25 21 21 23 29 31 32 32 32 31 30 31 30 30 31 30 30 29 29 30 30 30 30 31
28 24 18 18 21 24 27 28 23 26 28 28 27 28 27 27 25 28 24 21 18 18 24 29 30 31 31 30 30 29 30 30 30 30 30 30 29 29 28 29 30 30 30 30
29 28 24 25 23 24 28 28 26 29 30 31 26 25 25 24 26 23 20 17 15 26 30 30 30 29 30 30 30 29 30 30 30 29 29 28 28 28 27 28 28 29 29 29
29 27 30 28 27 26 28 30 28 31 28 25 23 18 21 26 24 18 20 20 27 31 33 32 30 29 30 30 29 29 30 29 28 28 28 27 29 28 27 27 28 28 29 29

GFSNW_sfc_30mbdewp_174.txt.gz
Dewpoint
45 44 45 46 46 46 40 37 29 34 44 32 33 28 32 29 27 28 29 32 29 27 27 25 25 26 34 34 34 30 33 31 28 28 31 36 37 33 32 30 29 31 31 32
43 43 44 45 45 44 39 34 32 37 41 26 27 29 30 31 30 28 28 30 33 33 31 28 30 31 34 28 30 28 31 29 22 20 30 32 32 32 32 31 31 27 26 30
42 43 43 43 44 43 39 34 27 32 37 33 27 26 26 26 31 32 31 32 34 32 30 31 27 23 24 29 28 33 35 29 26 22 24 26 28 29 29 31 24 24 23 29
42 43 42 43 43 43 38 34 30 29 26 28 30 28 26 23 24 30 33 29 32 29 27 27 27 28 25 25 29 30 28 23 26 24 26 27 25 25 25 25 27 24 25 27
41 41 42 42 43 43 37 30 29 32 28 27 29 27 24 25 25 25 24 27 30 31 26 27 23 24 23 20 25 22 30 19 21 18 26 22 25 22 20 22 24 23 23 22
41 41 41 41 41 41 34 35 37 34 28 28 26 25 25 24 27 26 29 30 30 28 26 27 24 25 24 20 20 18 21 21 19 9 17 23 18 14 16 16 16 22 21 23
42 41 41 41 41 38 36 35 34 29 24 27 25 26 28 28 30 28 30 33 29 24 29 29 28 29 28 27 25 22 16 21 20 12 16 11 14 16 19 19 19 18 19 21
42 41 41 40 42 39 34 34 34 31 25 26 25 27 26 28 29 30 29 25 23 28 23 14 11 10 12 14 15 17 19 18 17 15 14 16 15 15 15 16 20 32 33 28
42 42 41 41 42 40 36 35 35 33 26 23 28 26 27 23 25 24 24 26 25 20 16 13 11 8 6 6 6 8 18 18 19 18 16 12 15 29 30 29 17 34 35 36
42 42 41 41 41 42 37 35 37 33 26 31 32 29 28 26 22 19 19 21 20 22 16 13 14 13 12 8 5 7 11 15 19 19 17 20 30 31 30 20 20 33 35 37
42 42 41 41 41 42 39 35 38 34 30 30 31 31 25 25 22 16 22 18 23 22 16 16 15 14 14 18 14 14 14 14 17 19 18 16 32 30 26 31 33 34 35 37
42 42 41 41 41 40 38 34 38 38 33 32 34 32 31 28 25 22 24 18 25 23 21 23 23 21 21 16 12 18 14 22 19 23 22 29 24 28 34 33 32 35 37 38
42 42 41 41 39 40 38 34 37 36 33 32 30 26 25 29 28 27 22 27 27 28 27 25 23 20 19 15 15 16 17 20 20 18 21 20 16 27 29 30 29 38 39 38
42 42 41 41 40 39 38 34 37 33 31 22 21 29 27 25 26 27 27 25 27 27 27 23 23 21 21 17 16 16 17 17 17 16 17 17 17 23 24 25 28 36 37 38
42 42 41 41 40 39 38 37 37 33 26 24 26 29 28 28 28 26 27 26 24 25 23 23 23 24 22 22 21 18 19 17 16 13 16 20 21 20 23 23 33 36 37 36
42 42 42 41 41 40 36 32 34 38 37 28 19 28 27 28 29 27 27 28 27 26 26 25 25 26 22 20 17 16 17 19 20 20 20 21 21 23 24 30 32 37 36 37
42 42 41 41 41 39 33 27 32 38 39 30 22 23 26 27 28 28 28 29 28 27 27 27 26 25 26 25 20 18 20 21 22 23 23 21 20 29 33 30 33 34 35 38
41 41 41 41 41 37 35 38 39 37 34 32 22 21 25 28 26 25 30 27 28 29 28 29 26 26 28 22 21 22 22 23 22 22 22 22 32 34 34 33 34 32 36 37
41 41 42 36 36 33 34 39 38 36 30 24 24 21 17 28 27 29 29 31 25 28 27 26 26 25 22 22 21 21 22 21 19 21 32 32 31 34 34 35 36 35 36 37
39 37 33 29 35 40 39 36 32 32 30 30 26 26 19 26 25 24 25 27 23 21 22 27 24 21 22 24 23 23 21 22 34 33 32 34 35 37 35 34 34 34 33 33
34 31 30 37 38 35 32 27 27 27 25 27 27 26 21 29 23 24 26 22 24 21 22 24 23 22 29 33 32 24 30 32 31 33 35 34 33 34 33 31 31 31 31 32
34 34 36 35 32 29 24 23 26 23 19 25 24 25 25 26 29 25 28 24 23 17 28 24 20 28 32 30 27 31 32 32 33 33 32 31 31 31 30 30 30 30 31 32
35 31 30 28 28 21 19 17 21 21 21 22 24 24 26 28 28 26 25 22 21 29 24 22 25 31 32 32 32 31 31 31 31 30 30 30 30 30 30 29 29 30 31 32
29 24 20 21 20 21 20 19 20 23 21 22 24 26 26 29 25 24 22 23 26 22 19 22 28 30 30 30 30 30 30 30 30 30 30 29 29 28 29 30 30 30 30 30
28 25 16 19 21 23 25 26 24 25 26 27 27 27 26 26 24 27 24 22 19 19 20 28 29 30 29 29 29 29 29 30 30 30 29 29 28 28 28 29 29 29 30 30
28 28 23 24 21 21 26 25 24 29 30 27 26 26 23 20 24 23 21 19 17 25 29 29 29 28 28 28 29 30 30 29 29 29 28 28 27 27 27 28 28 28 29 28
27 26 28 26 24 23 23 26 26 30 25 24 22 16 13 24 24 23 22 19 26 28 31 30 29 29 28 28 29 29 29 28 28 27 27 28 29 28 27 26 28 28 27 27

GFSNW_sfc_30mbdewp_180.txt.gz
Dewpoint
49 49 49 49 49 47 42 38 30 41 43 32 32 27 27 26 26 27 27 28 24 22 22 20 20 19 22 34 31 27 30 27 22 21 23 34 34 29 28 22 20 23 22 22
48 48 49 49 47 44 40 33 33 41 41 26 27 29 26 28 29 27 28 28 28 31 28 24 27 25 33 34 32 27 29 26 18 15 26 29 24 25 27 27 26 22 20 19
48 48 48 48 47 43 38 34 28 33 37 32 27 25 26 26 29 27 29 29 32 31 28 29 26 29 31 33 30 31 28 26 20 12 8 16 20 19 20 24 21 18 19 17
45 45 47 48 46 44 38 33 29 32 28 29 27 26 27 26 27 30 31 30 29 27 24 26 26 29 28 28 29 30 29 23 25 24 22 24 25 22 15 20 23 21 18 17
43 44 44 46 45 43 37 30 29 29 30 30 27 27 25 24 26 26 26 25 27 29 26 23 21 25 27 26 27 28 30 20 19 12 14 17 13 12 18 21 18 18 18 15
43 44 44 44 45 40 35 35 37 29 29 31 27 26 26 25 25 25 26 25 25 25 27 29 29 32 30 28 25 25 23 19 16 4 7 12 9 10 11 10 14 13 12 18
41 42 44 44 44 40 36 37 33 27 25 27 27 25 27 25 25 22 30 30 26 28 32 31 31 31 30 29 25 23 18 20 17 10 10 5 3 12 18 23 24 29 28 28
40 41 42 42 43 42 38 36 32 30 26 26 26 25 25 26 27 27 28 31 33 31 28 17 13 12 11 14 20 23 22 18 14 11 13 12 13 26 27 26 24 32 29 28
42 41 41 40 42 42 38 37 36 30 27 26 27 26 27 26 26 28 30 32 30 25 17 12 9 1 8 6 8 21 25 23 16 16 12 5 18 23 25 26 21 29 31 28
42 42 41 40 40 43 39 37 37 31 27 26 30 26 26 26 27 26 25 24 23 20 14 11 11 11 13 7 7 8 15 18 16 14 12 12 22 22 20 19 20 27 31 31
42 42 42 41 39 40 37 35 36 31 25 30 32 33 29 26 25 22 22 21 22 19 15 13 13 13 13 14 12 10 10 11 13 14 12 9 24 20 10 14 18 24 31 31
41 42 42 41 40 40 35 33 37 35 26 28 35 35 35 32 27 22 24 21 20 19 16 16 14 14 16 15 10 16 12 12 11 15 8 18 27 20 23 27 28 25 28 23
40 42 42 40 40 39 34 35 36 32 29 26 28 28 31 35 33 30 21 25 25 22 23 19 19 16 20 15 16 13 17 20 18 17 10 16 20 21 22 29 25 27 22 23
41 42 42 41 40 39 37 35 36 31 28 19 20 31 29 33 32 29 26 26 29 28 26 22 20 19 21 18 16 16 15 18 17 17 16 17 17 17 19 19 24 23 22 23
42 42 42 41 41 39 37 37 36 33 23 17 21 29 29 30 31 28 27 27 26 26 24 22 21 23 22 22 21 18 18 14 13 11 11 13 14 17 21 21 22 23 22 28
42 42 42 41 42 39 36 31 37 37 31 23 18 25 26 29 28 27 26 26 25 24 22 21 23 24 21 17 16 14 16 19 19 17 17 17 18 20 21 22 23 22 24 33
42 42 42 41 41 38 31 27 32 36 32 24 18 18 26 29 29 28 27 28 26 24 23 22 22 23 25 20 17 17 17 18 21 23 22 22 22 21 22 23 23 23 31 36
42 42 42 40 39 38 35 38 38 34 32 28 20 18 22 28 25 25 28 25 26 26 24 25 25 25 24 21 20 20 23 31 29 28 28 24 23 23 22 23 25 35 37 37
43 42 40 36 35 33 36 38 35 34 28 23 24 18 16 26 26 27 29 28 24 27 26 25 26 24 22 21 22 26 28 31 30 30 25 24 24 24 26 34 34 33 32 32
37 36 33 29 35 39 36 34 31 28 29 28 23 25 20 25 23 24 24 26 24 20 21 26 25 22 24 30 32 32 32 32 32 26 23 29 31 31 35 34 32 32 31 31
34 32 31 38 38 33 31 28 25 26 24 26 26 24 19 26 22 22 23 21 22 17 20 22 21 22 28 31 32 32 30 28 31 32 33 33 33 33 33 31 31 31 31 31
34 35 36 36 32 28 24 23 25 22 19 25 24 25 23 26 26 23 25 23 23 17 22 22 19 26 30 30 31 32 32 32 31 31 31 31 31 31 30 29 30 30 31 31
34 31 30 27 26 18 17 17 18 20 22 25 26 25 24 28 27 25 25 21 19 25 22 20 25 29 29 30 30 30 31 31 31 30 30 30 29 29 29 29 29 30 30 30
28 24 21 20 19 19 18 18 19 23 22 24 25 25 25 26 25 24 21 20 23 20 18 20 27 28 29 29 30 30 29 29 29 28 28 28 28 28 28 28 29 29 29 29
28 22 18 20 21 23 24 23 22 23 24 25 26 25 25 24 22 24 21 20 19 20 18 24 29 28 28 29 29 29 29 29 28 28 27 27 27 27 27 28 28 28 28 27
28 26 21 22 20 21 23 24 24 26 25 26 25 23 20 19 20 21 20 20 17 21 26 29 28 28 28 29 29 29 29 28 28 27 27 27 27 27 27 27 27 27 27 26
25 23 26 22 19 18 20 22 24 27 25 23 25 21 19 23 21 21 22 20 23 27 29 29 28 28 28 28 28 29 28 28 27 27 28 27 28 28 27 25 26 26 26 25

GFSNW_sfc_30mbdewp_186.txt.gz
Dewpoint
46 52 51 51 51 48 46 38 30 45 47 32 32 30 31 33 34 36 34 34 33 30 29 27 26 25 28 31 28 23 30 25 19 14 19 22 19 22 30 21 18 22 19 17
48 51 51 50 48 47 41 32 32 44 41 27 29 31 31 32 32 33 32 31 32 32 30 26 28 28 33 32 26 26 27 24 14 16 24 27 28 30 29 27 22 11 11 10
46 47 47 46 46 43 38 33 28 32 33 33 31 30 30 29 34 33 34 33 33 31 29 28 27 26 33 33 30 31 26 22 15 6 13 14 15 16 23 23 17 15 15 14
47 46 46 45 44 43 37 33 30 32 28 30 32 30 31 29 28 33 33 32 30 29 28 25 26 26 30 32 32 28 26 22 21 20 15 13 13 14 15 14 17 16 14 9
46 45 44 44 44 41 35 32 31 35 33 33 32 30 30 29 30 31 29 30 29 26 24 21 23 25 25 25 29 28 29 20 21 21 19 17 17 16 13 9 6 4 3 1
47 46 44 44 43 40 34 37 38 34 32 32 30 30 31 30 29 30 28 30 29 28 29 23 24 24 24 24 24 23 29 23 22 12 13 12 9 9 7 4 1 1 3 7
43 45 44 43 42 40 39 38 37 31 28 31 30 30 30 30 29 28 29 28 24 29 32 30 29 29 28 27 25 23 24 23 21 15 12 9 8 7 8 9 7 8 9 12
42 43 44 42 42 41 39 39 37 34 29 31 30 31 31 29 28 26 27 27 28 29 26 23 20 18 17 22 27 25 25 23 19 15 10 6 1 1 2 7 7 9 10 15
41 43 43 43 41 41 40 39 41 36 30 30 31 31 29 27 25 26 30 32 32 27 19 18 15 11 7 7 15 23 26 24 17 12 6 -1 -6 11 15 13 9 8 13 12
41 41 43 42 41 41 40 38 40 36 30 34 31 29 28 26 24 23 28 31 28 26 22 18 13 8 5 2 3 14 18 20 16 11 8 4 4 5 17 8 1 9 7 9
41 41 41 42 41 40 39 37 39 35 31 33 33 29 27 26 24 23 28 27 28 24 20 17 18 15 10 5 1 9 11 13 12 13 10 8 8 10 14 5 8 9 9 12
42 41 41 41 40 40 39 35 37 38 33 34 35 35 32 29 26 27 28 24 25 25 22 22 21 17 19 10 6 6 4 9 7 10 8 10 15 11 13 17 13 12 11 14
42 41 40 40 40 39 38 35 35 34 32 31 29 30 34 32 31 31 25 25 26 25 27 25 22 15 14 12 9 8 8 10 12 10 9 10 9 10 12 14 14 13 13 14
42 42 41 39 40 39 37 34 36 31 27 26 25 31 32 35 31 30 30 27 29 26 24 23 19 13 15 12 9 10 11 11 12 11 10 9 9 10 11 12 14 14 14 15
42 42 41 40 38 37 36 36 38 33 23 22 23 28 31 34 30 29 29 28 25 24 23 23 17 16 18 18 18 15 13 12 11 12 11 9 11 12 14 15 16 17 17 17
42 41 42 39 39 36 33 29 34 36 34 27 20 27 29 32 30 29 28 28 27 28 23 21 20 23 20 18 13 11 11 12 16 14 15 16 17 18 19 20 21 21 21 21
42 41 41 38 37 35 34 30 30 33 32 26 22 22 29 32 34 33 28 29 30 28 26 24 20 20 22 20 16 14 13 15 17 19 21 22 22 22 23 26 27 26 25 25
41 41 39 38 37 37 34 36 35 31 31 29 21 23 26 29 29 29 33 30 28 28 25 26 21 19 22 18 14 16 23 26 27 28 30 30 31 30 29 29 27 26 24 24
41 40 38 37 35 34 35 38 36 34 27 22 21 17 20 30 29 30 30 28 24 27 23 21 23 18 19 19 20 25 29 30 29 30 30 29 29 29 25 23 24 28 31 34
37 36 34 30 35 36 34 33 31 29 29 28 21 23 24 27 28 27 27 27 19 20 20 26 22 18 17 19 25 30 31 30 29 29 25 27 27 26 26 31 33 33 32 32
36 33 31 36 38 34 31 27 24 25 21 21 23 23 25 28 22 24 26 23 22 17 18 19 17 18 27 30 31 32 33 32 33 33 33 32 33 32 32 31 31 31 31 31
35 35 37 35 31 28 22 21 23 19 14 21 20 22 24 29 28 25 26 21 21 15 24 21 16 27 29 31 29 30 30 31 31 30 30 31 31 32 31 31 30 30 30 31
32 30 29 27 26 21 18 17 18 19 22 25 24 24 27 29 27 25 24 20 17 23 20 16 18 29 29 28 31 29 30 31 30 30 30 30 29 30 29 29 30 30 30 30
27 24 21 21 20 20 19 18 20 25 25 24 22 26 24 28 23 25 20 20 21 18 16 16 28 28 28 29 30 29 28 29 28 28 28 28 29 29 29 29 29 29 28 29
24 22 20 22 24 26 27 27 26 27 27 26 27 27 26 25 24 23 21 19 15 16 18 24 29 28 28 28 28 28 28 29 28 28 28 28 28 28 28 29 29 29 28 28
28 25 23 24 25 26 26 27 27 28 28 28 27 24 24 22 21 20 17 14 13 19 25 31 29 27 28 28 28 29 29 28 29 29 29 28 28 28 28 28 28 27 27 27
24 26 30 27 25 27 28 28 28 29 27 22 23 22 17 22 19 16 18 18 25 30 30 30 30 28 29 30 29 29 29 29 29 29 29 29 29 29 28 27 27 26 26 26